THORAD DELTA 1 DEB

Satellite information

Favourite Embed

Satellite Type and Status

DEBRISIN ORBIT

Key statistics

Satellite THORAD DELTA 1 DEB at a glance.

Uptime

18436

Days in orbit

Revolutions

≈ 13.5

Per day

Orbit

SSO

Sun Synchronous Orbit

Inclination

103.3

Latest

Satellite identification and parameters

Extended collection of information and parameters for THORAD DELTA 1 DEB.

Object identification

Identified? True

Debris? True

Object name: THORAD DELTA 1 DEB

International designator: 1974-089ED

Object number (NORAD): 9986

Object ID (CCSDS): 9986

Country: UNITED STATES OF AMERICA (US)

Current information (Y/N): Y

RCS size: SMALL

Orbital parameters

Period: 107.019 minutes

Inclination: 103.2625 deg

SMA: 7466.788 km

Apoapsis: 1377.281 km

Periapsis: 800.026 km

RAAN: 284.1191 deg

Eccentricy: 0.0386548

Argument of periapsis: 272.4576 deg

Mean anomaly: 83.2351 deg

Mean motion: 13.45556665 rev/day

Mean motion (dot): 0.00004739 rev/day2

B* drag term: 0.0051557 1/REarth

Two-line elements (TLE)

Creation date: May 7, 2025, 3:14 a.m.

Reference frame: TEME

Reference center: EARTH

Epoch: May 6, 2025, 4:09 p.m. UTC

TLE line 0: 0 THORAD DELTA 1 DEB

TLE line 1: 1 09986U 74089ED 25126.67318446 .00004739 00000-0 51557-2 0 9993

TLE line 2: 2 09986 103.2625 284.1191 0386548 272.4576 83.2351 13.45556665376932

Live tracking on map

Real-time ground track for satellite THORAD DELTA 1 DEB.

In-orbit conjunctions

A list of the most updated potential collisions computed for object THORAD DELTA 1 DEB.

Target Orbit TCA Probability of collision Miss distance Type
CZ-6A DEB LEO 2025-01-23 20:42:55 0.000126592 363.0 (m) DEBRIS

Associated space launch

Meteorological satellite using radiometric imaging

THORAD DELTA 1 DEB was lifted into orbit during the mission ‘Delta 2310 | NOAA 4’, on board a Delta 2310 space rocket.

The launch took place on Nov. 15, 1974, 5:11 p.m. from Space Launch Complex 2W.

For more information about the launch, click the button.

Launch to space Delta 2310 | NOAA 4
Delta 2310 | NOAA 4

Agency: N/A

Status: Launch Successful

Launch date: Nov. 15, 1974, 5:11 p.m. UTC

Rocket: Delta 2310

Launch pad: Space Launch Complex 2W

Location: Vandenberg SFB, CA, USA

...

Latest news about this satellite

There are no fresh news available about this satellite. Check back as we update our databases every day.


Newsletter sign-up

Weekly statistics, charts and insights to help you stay on top of the space industry.